User: anonymous   Login
Location: Mahannah Oil Field
(37.4664°N, 96.6003°W)
Time: 17:53:08
(UTC+00:00)
Language:

Transit 2A Rocket - Orbit

View from above orbital plane
View from above orbital plane
View from above satellite
View from above satellite

Ground track
Ground track

The orbit data is extracted from the following two-line orbital elements,

1 00047U 60007C   21129.10235993 -.00000010  00000-0  22810-4 0  9990
2 00047  66.6675   4.2337 0220729  64.1312 298.2369 14.42149433181630
Epoch (UTC): 09 May 2021 02:27:23
Eccentricity: 0.0220729
inclination: 66.6675°
perigee height: 594 km
apogee height: 909 km
right ascension of ascending node: 4.2337°
argument of perigee: 64.1312°
revolutions per day: 14.42149433
mean anomaly at epoch: 298.2369°
orbit number at epoch: 18163

The dashed part of the orbit path shows where the satellite is in the earth's shadow,  

DLR